Flag for Norway Weather past 2 weeks in Kongsvinger, Norway

Now
50 °F

Light rain. Passing clouds.


Feels Like: 50 °F
Forecast: 47 / 60 °F
Wind: 2 mph from North

Location: Oslo Gardermoen Airport

Current Time: Sep 5, 2015 at 6:07:46 AM

Latest Report: Sep 5, 2015 at 5:20 AM


Visibility: N/A

Pressure: 29.45 "Hg

Humidity: 94%

Dew point: 48 °F

Location of KongsvingerLocation

Historic Weather in Kongsvinger — Graph

°F

Kongsvinger temperature yesterday

Maximum temperature yesterday: 63 °F (at 4:50 PM)
Minimum temperature yesterday: 43 °F (at 2:20 AM)
Average temperature yesterday: 52 °F

Past Weeks' High & Low Weather Summary

 TemperatureHumidityPressure
High75 °F (Aug 23, 3:50 PM)100% (Aug 26, 7:50 PM)30.36 "Hg (Aug 26, 7:50 PM)
Low43 °F (Aug 22, 5:50 AM)31% (Aug 22, 3:50 PM)29.47 "Hg (Aug 27, 5:50 PM)
Average58 °F76%29.91 "Hg
* Reported Aug 21 4:20 AM — Sep 5 4:50 AM, Kongsvinger, Weather by CustomWeather, © 2015

Note: Actual official high and low records may vary slightly from our data, if they occured in-between our weather recording intervals... More about our weather records

Advertising

Kongsvinger weather history for previous 24 hours

 ConditionsComfort  
Time TempWeatherWind HumidityBarometerVisibility
4:50 AM
Sat, Sep 5
50 °FLight rain. Passing clouds.5 mph94%29.47 "HgN/A
4:20 AM52 °FLight rain. Passing clouds.2 mph94%29.47 "HgN/A
3:50 AM52 °FLight rain. Passing clouds.5 mph94%29.50 "HgN/A
3:20 AM52 °FLight rain. Passing clouds.5 mph94%29.50 "HgN/A
2:50 AM52 °FLight rain. Passing clouds.5 mph94%29.50 "HgN/A
2:20 AM52 °FPassing clouds.7 mph94%29.53 "HgN/A
1:50 AM52 °FPassing clouds.6 mph94%29.53 "HgN/A
1:20 AM52 °FPassing clouds.8 mph88%29.53 "HgN/A
12:50 AM52 °FPassing clouds.7 mph88%29.56 "HgN/A
12:20 AM52 °FPassing clouds.7 mph88%29.56 "HgN/A
11:20 PM
Fri, Sep 4
52 °FPassing clouds.8 mph88%29.59 "HgN/A
10:50 PM52 °FPassing clouds.9 mph88%29.59 "HgN/A
10:20 PM52 °FClear.9 mph88%29.59 "Hg10 mi
9:50 PM54 °FClear.8 mph82%29.62 "Hg10 mi
9:20 PM54 °FClear.9 mph82%29.62 "Hg10 mi
8:50 PM54 °FSunny.10 mph82%29.62 "Hg10 mi
8:20 PM54 °FSunny.10 mph77%29.65 "Hg10 mi
7:50 PM55 °FSunny.12 mph72%29.65 "Hg10 mi
7:20 PM57 °FSunny.10 mph67%29.65 "Hg10 mi
6:50 PM59 °FPassing clouds.12 mph63%29.65 "HgN/A
6:20 PM61 °FSunny.12 mph59%29.68 "Hg10 mi
5:50 PM61 °FPassing clouds.15 mph55%29.68 "HgN/A
5:20 PM63 °FPassing clouds.14 mph56%29.71 "HgN/A
4:50 PM63 °FScattered clouds.12 mph56%29.71 "HgN/A
4:20 PM59 °FScattered clouds.12 mph59%29.74 "HgN/A
3:50 PM61 °FScattered clouds.12 mph59%29.74 "HgN/A
3:20 PM61 °FBroken clouds.No wind63%29.74 "HgN/A
2:50 PM59 °FScattered clouds.7 mph68%29.77 "HgN/A
2:20 PM61 °FScattered clouds.9 mph63%29.77 "HgN/A
1:50 PM59 °FScattered clouds.9 mph72%29.77 "HgN/A
1:20 PM59 °FPartly sunny.9 mph77%29.80 "HgN/A
12:50 PM57 °FScattered clouds.7 mph82%29.80 "HgN/A
12:20 PM55 °FPartly sunny.5 mph88%29.80 "HgN/A
11:50 AM52 °FPartly sunny.2 mph94%29.83 "HgN/A
11:20 AM52 °FLow clouds.No wind94%29.83 "Hg4 mi
10:50 AM50 °FCool.1 mph100%29.83 "Hg2 mi
10:20 AM50 °FCool.2 mph94%29.83 "Hg1 mi
9:50 AM48 °FFog.3 mph100%29.83 "Hg1 mi
9:20 AM48 °FCool.No wind94%29.86 "Hg2 mi
8:50 AM46 °FCool.2 mph100%29.86 "Hg2 mi
8:20 AM46 °FCool.No wind100%29.86 "Hg1 mi
7:50 AM46 °FFog.No wind100%29.86 "Hg1 mi
7:20 AM46 °FFog.5 mph93%29.86 "Hg1 mi
6:50 AM46 °FCool.2 mph100%29.86 "Hg1 mi
6:20 AM46 °FCool.5 mph93%29.86 "Hg2 mi
Weather by CustomWeather, © 2015

See weather overviewHow to use our weather pages